Clinton-Sherman, OK

11:55 PM CDT on June 27, 2017 (GMT -0500)
Clinton-Sherman

Weather History for KCSM - October, 2012

Change the Weather History Date:

Tuesday, October 30, 2012

  Actual Average Record
Temperature  
Mean Temperature 64 °F -  
Max Temperature 81 °F 63 °F 82 °F (2006)
Min Temperature 46 °F 44 °F 37 °F (2002)
Degree Days  
Heating Degree Days 2    
Growing Degree Days 14 (Base 50)    
Moisture  
Dew Point 35 °F    
Average Humidity 39    
Maximum Humidity 58    
Minimum Humidity 20    
Precipitation  
Precipitation 0.00 in - - ()
Sea Level Pressure  
Sea Level Pressure 29.98 in    
Wind  
Wind Speed 11 mph (SW)    
Max Wind Speed 15 mph    
Max Gust Speed 17 mph    
Visibility 10 miles    
Events      
Averages and records for this station are not official NWS values.
T = Trace of Precipitation, MM = Missing Value Source: NWS Daily Summary

Daily Weather History Graph

Daily Weather History Graph

Search for Another Location

Airport or City:

Trip Planner

Search our weather history database for the weather conditions in past years. The results will help you decide how hot, cold, wet, or windy it might be!

Date:

Astronomy

Oct. 30, 2012 Rise Set
Actual Time 7:56 AM CDT 6:43 PM CDT
Civil Twilight 7:30 AM CDT 7:09 PM CDT
Nautical Twilight 7:00 AM CDT 7:39 PM CDT
Astronomical Twilight 6:31 AM CDT 8:09 PM CDT
Moon 7:17 PM CDT (10/30) 8:42 AM CDT (10/30)
Length of Visible Light 11h 38m
Length of Day
10h 46m
Full, 99% of the Moon is Illuminated
Oct 30
Full
Nov 6
Last Quarter
Nov 13
New
Nov 20
First Quarter
Nov 28
Full

Hourly Weather History & Observations

Time (CDT) Temp. Windchill Dew Point Humidity Pressure Visibility Wind Dir Wind Speed Gust Speed Precip Events Conditions
12:53 AM 51.1 °F - 30.9 °F 46% 30.07 in 10.0 mi South 13.8 mph - N/A   Clear
2:53 AM 48.9 °F - 30.9 °F 50% 30.06 in 10.0 mi South 10.4 mph - N/A   Clear
3:53 AM 46.0 °F 41.4 °F 30.9 °F 56% 30.05 in 10.0 mi SSW 9.2 mph - N/A   Clear
4:53 AM 46.9 °F - 30.0 °F 52% 30.03 in 10.0 mi SW 13.8 mph - N/A   Clear
5:53 AM 46.9 °F - 30.9 °F 54% 30.03 in 10.0 mi SW 11.5 mph - N/A   Clear
6:53 AM 46.0 °F 40.6 °F 30.9 °F 56% 30.03 in 10.0 mi SW 11.5 mph - N/A   Clear
7:53 AM 46.0 °F 41.0 °F 32.0 °F 58% 30.04 in 10.0 mi SW 10.4 mph - N/A   Clear
8:53 AM 48.9 °F - 33.1 °F 54% 30.04 in 10.0 mi WSW 5.8 mph - N/A   Clear
9:53 AM 57.9 °F - 36.0 °F 44% 30.04 in 10.0 mi SW 6.9 mph - N/A   Clear
10:53 AM 64.0 °F - 37.0 °F 37% 30.02 in 10.0 mi SW 11.5 mph - N/A   Clear
11:53 AM 70.0 °F - 37.0 °F 30% 30.01 in 10.0 mi WSW 15.0 mph - N/A   Clear
12:53 PM 73.9 °F - 37.0 °F 26% 29.99 in 10.0 mi WSW 11.5 mph - N/A   Clear
1:53 PM 77.0 °F - 37.0 °F 24% 29.95 in 10.0 mi WSW 9.2 mph 17.3 mph N/A   Clear
2:53 PM 79.0 °F - 36.0 °F 21% 29.92 in 10.0 mi SW 15.0 mph - N/A   Clear
3:53 PM 81.0 °F - 36.0 °F 20% 29.90 in 10.0 mi SSW 11.5 mph - N/A   Clear
4:53 PM 80.1 °F - 36.0 °F 20% 29.88 in 10.0 mi SSW 13.8 mph - N/A   Clear
5:53 PM 78.1 °F - 37.0 °F 23% 29.88 in 10.0 mi SW 11.5 mph - N/A   Clear
6:53 PM 73.9 °F - 36.0 °F 25% 29.90 in 10.0 mi Variable 3.5 mph - N/A   Clear
7:53 PM 66.0 °F - 37.0 °F 34% 29.93 in 10.0 mi SW 6.9 mph - N/A   Clear
8:53 PM 62.1 °F - 37.0 °F 39% 29.94 in 10.0 mi SW 8.1 mph - N/A   Clear
9:53 PM 61.0 °F - 35.1 °F 38% 29.95 in 10.0 mi NNW 8.1 mph - N/A   Clear
10:53 PM 57.0 °F - 36.0 °F 45% 29.97 in 10.0 mi North 6.9 mph - N/A   Clear
11:53 PM 55.9 °F - 37.9 °F 51% 29.97 in 10.0 mi North 8.1 mph - N/A   Clear